{"data":{"norad_id":58537,"epoch":"2026-09-20T22:30:51.144480Z","epoch_age_seconds":109112,"freshness":"FRESH","line1":"1 58537U 23192G   26263.93809195  .00000112  00000+0  14444-4 0  9992","line2":"2 58537  53.1613 231.9444 0001470  87.6374 272.4797 15.34392305155939","mean_motion":15.34392305,"eccentricity":0.000147,"inclination_deg":53.1613,"raan_deg":231.9444,"arg_perigee_deg":87.6374,"mean_anomaly_deg":272.4797,"bstar":1.4444e-5,"rev_number":15593,"period_min":93.848228729223,"perigee_km":461.72050458695,"apogee_km":463.73171834172,"semimajor_km":6840.8631114643,"source":"CELESTRAK","updated_at":"2026-09-21T09:00:33.913067Z"}}